This is the latest recevied weather packets stored in our database for station/object DC0VZ-6. If no packets are shown the sender has not sent any weather packets the latest 10 day(s).
| Time | Temp. | Humidity | Pressure | Rain* | Wind** | Luminosity | Snow |
|---|---|---|---|---|---|---|---|
| 1777539971 | 16.67° C | 5% | 993.9 hPa | 0 mm | - | - | - |
| 1777539371 | 16.11° C | 5% | 994.1 hPa | 0 mm | - | - | - |
| 1777538771 | 15.56° C | 5% | 994.1 hPa | 0 mm | - | - | - |
| 1777538171 | 15° C | 5% | 994.1 hPa | 0 mm | - | - | - |
| 1777537571 | 15.56° C | 5% | 994.1 hPa | 0 mm | - | - | - |
| 1777536971 | 14.44° C | 5% | 993.9 hPa | 0 mm | - | - | - |
| 1777536371 | 13.89° C | 5% | 993.9 hPa | 0 mm | - | - | - |
| 1777535771 | 13.33° C | 5% | 993.9 hPa | 0 mm | - | - | - |
| 1777535170 | 12.22° C | 5% | 993.9 hPa | 0 mm | - | - | - |
| 1777534570 | 11.67° C | 5% | 993.4 hPa | 0 mm | - | - | - |
| 1777533970 | 11.11° C | 5% | 993.4 hPa | 0 mm | - | - | - |
| 1777533370 | 10.56° C | 5% | 992.9 hPa | 0 mm | - | - | - |
| 1777532770 | 10.56° C | 5% | 992.9 hPa | 0 mm | - | - | - |
| 1777532170 | 10° C | 5% | 992.8 hPa | 0 mm | - | - | - |
| 1777531570 | 10° C | 7% | 992.8 hPa | 0 mm | - | - | - |
| 1777530970 | 9.44° C | 7% | 992.7 hPa | 0 mm | - | - | - |
| 1777530370 | 8.89° C | 7% | 992.7 hPa | 0 mm | - | - | - |
| 1777529770 | 8.89° C | 8% | 992.6 hPa | 0 mm | - | - | - |
| 1777529170 | 8.33° C | 8% | 992.6 hPa | 0 mm | - | - | - |
| 1777528570 | 8.33° C | 8% | 992.8 hPa | 0 mm | - | - | - |
| 1777527970 | 7.78° C | 8% | 992.8 hPa | 0 mm | - | - | - |
| 1777527369 | 7.78° C | 8% | 992.7 hPa | 0 mm | - | - | - |
| 1777526769 | 7.22° C | 8% | 992.7 hPa | 0 mm | - | - | - |
| 1777526174 | 7.22° C | 8% | 992.3 hPa | 0 mm | - | - | - |
| 1777525574 | 7.22° C | 8% | 992.3 hPa | 0 mm | - | - | - |
* Rain latest hour (hover to see other rain measurements)
** Current wind speed in m/s (hover to see current wind gust speed)